Météo par heure à Abadan

Ce jour, 15 Avril, Jeudi

Heure Température Précipitation Vent Pression Humidité
00:00 +27°C° 0 mm 8 m/s 759 mmHg 15%
01:00 +26°C° 0 mm 7 m/s 760 mmHg 17%
02:00 +24°C° 0 mm 6 m/s 760 mmHg 18%
03:00 +23°C° 0 mm 6 m/s 760 mmHg 20%
04:00 +22°C° 0 mm 6 m/s 760 mmHg 20%
05:00 +22°C° 0 mm 5 m/s 760 mmHg 21%
06:00 +21°C° 0 mm 5 m/s 761 mmHg 21%
07:00 +23°C° 0 mm 6 m/s 761 mmHg 19%
08:00 +26°C° 0 mm 7 m/s 761 mmHg 16%
09:00 +28°C° 0 mm 7 m/s 761 mmHg 14%
10:00 +29°C° 0 mm 7 m/s 761 mmHg 12%
11:00 +32°C° 0 mm 7 m/s 760 mmHg 10%
12:00 +34°C° 0 mm 7 m/s 760 mmHg 8%
13:00 +34°C° 0 mm 7 m/s 759 mmHg 7%
14:00 +35°C° 0 mm 8 m/s 758 mmHg 7%
15:00 +35°C° 0 mm 8 m/s 758 mmHg 6%
16:00 +35°C° 0 mm 7 m/s 758 mmHg 7%
17:00 +34°C° 0 mm 7 m/s 758 mmHg 7%
18:00 +33°C° 0 mm 6 m/s 758 mmHg 7%
19:00 +32°C° 0 mm 6 m/s 758 mmHg 9%
20:00 +30°C° 0 mm 6 m/s 758 mmHg 10%
21:00 +29°C° 0 mm 5 m/s 758 mmHg 11%
22:00 +28°C° 0 mm 5 m/s 758 mmHg 12%
23:00 +27°C° 0 mm 5 m/s 758 mmHg 13%

Demain, 16 Avril, Vendredi

Heure Température Précipitation Vent Pression Humidité
00:00 +26°C° 0 mm 6 m/s 758 mmHg 14%
01:00 +26°C° 0 mm 6 m/s 758 mmHg 16%
02:00 +24°C° 0 mm 6 m/s 758 mmHg 17%
03:00 +23°C° 0 mm 5 m/s 758 mmHg 18%
04:00 +23°C° 0 mm 5 m/s 758 mmHg 19%
05:00 +23°C° 0 mm 5 m/s 758 mmHg 19%
06:00 +22°C° 0 mm 5 m/s 759 mmHg 20%
07:00 +26°C° 0 mm 6 m/s 759 mmHg 17%
08:00 +28°C° 0 mm 8 m/s 759 mmHg 15%
09:00 +31°C° 0 mm 9 m/s 759 mmHg 12%
10:00 +33°C° 0 mm 9 m/s 759 mmHg 11%
11:00 +36°C° 0 mm 10 m/s 759 mmHg 9%
12:00 +37°C° 0 mm 10 m/s 758 mmHg 8%
13:00 +38°C° 0 mm 10 m/s 758 mmHg 7%
14:00 +39°C° 0 mm 11 m/s 757 mmHg 7%
15:00 +39°C° 0 mm 11 m/s 756 mmHg 7%
16:00 +38°C° 0 mm 10 m/s 756 mmHg 7%
17:00 +37°C° 0 mm 10 m/s 756 mmHg 8%
18:00 +35°C° 0 mm 9 m/s 757 mmHg 9%
19:00 +34°C° 0 mm 9 m/s 757 mmHg 10%
20:00 +33°C° 0 mm 8 m/s 757 mmHg 11%
21:00 +32°C° 0 mm 7 m/s 757 mmHg 12%
22:00 +30°C° 0 mm 7 m/s 757 mmHg 13%
23:00 +29°C° 0 mm 6 m/s 757 mmHg 15%

Après-demain, 17 Avril, Samedi

Heure Température Précipitation Vent Pression Humidité
00:00 +28°C° 0 mm 6 m/s 757 mmHg 16%
01:00 +27°C° 0 mm 6 m/s 757 mmHg 17%
02:00 +27°C° 0 mm 6 m/s 757 mmHg 18%
03:00 +26°C° 0 mm 6 m/s 757 mmHg 19%
04:00 +26°C° 0 mm 6 m/s 757 mmHg 20%
05:00 +24°C° 0 mm 6 m/s 758 mmHg 21%
06:00 +25°C° 0 mm 5 m/s 758 mmHg 22%
07:00 +27°C° 0 mm 7 m/s 758 mmHg 20%
08:00 +29°C° 0 mm 8 m/s 758 mmHg 18%
09:00 +32°C° 0 mm 9 m/s 759 mmHg 15%
10:00 +33°C° 0 mm 9 m/s 758 mmHg 13%
11:00 +35°C° 0 mm 9 m/s 758 mmHg 11%
12:00 +38°C° 0 mm 9 m/s 757 mmHg 9%
13:00 +38°C° 0 mm 9 m/s 757 mmHg 8%
14:00 +38°C° 0 mm 8 m/s 757 mmHg 8%
15:00 +39°C° 0 mm 8 m/s 756 mmHg 7%
16:00 +38°C° 0 mm 7 m/s 756 mmHg 8%
17:00 +36°C° 0 mm 6 m/s 757 mmHg 8%
18:00 +36°C° 0 mm 6 m/s 757 mmHg 8%
19:00 +35°C° 0 mm 5 m/s 757 mmHg 9%
20:00 +33°C° 0 mm 5 m/s 757 mmHg 11%
21:00 +32°C° 0 mm 5 m/s 758 mmHg 12%
22:00 +30°C° 0 mm 5 m/s 757 mmHg 13%
23:00 +30°C° 0 mm 5 m/s 757 mmHg 14%

18 Avril, Dimanche

Heure Température Précipitation Vent Pression Humidité
00:00 +29°C° 0 mm 5 m/s 757 mmHg 15%
01:00 +29°C° 0 mm 4 m/s 757 mmHg 17%
02:00 +28°C° 0 mm 4 m/s 758 mmHg 18%
03:00 +27°C° 0 mm 4 m/s 758 mmHg 19%
04:00 +27°C° 0 mm 5 m/s 758 mmHg 20%
05:00 +27°C° 0 mm 5 m/s 758 mmHg 20%
06:00 +26°C° 0 mm 5 m/s 758 mmHg 21%
07:00 +28°C° 0 mm 5 m/s 759 mmHg 20%
08:00 +30°C° 0 mm 6 m/s 759 mmHg 18%
09:00 +33°C° 0 mm 6 m/s 759 mmHg 16%
10:00 +35°C° 0 mm 6 m/s 759 mmHg 15%
11:00 +37°C° 0 mm 5 m/s 758 mmHg 13%
12:00 +39°C° 0 mm 5 m/s 758 mmHg 11%
13:00 +40°C° 0 mm 5 m/s 757 mmHg 9%
14:00 +40°C° 0 mm 5 m/s 757 mmHg 8%
15:00 +41°C° 0 mm 4 m/s 756 mmHg 7%
16:00 +40°C° 0 mm 4 m/s 756 mmHg 7%
17:00 +38°C° 0 mm 3 m/s 756 mmHg 8%
18:00 +37°C° 0 mm 2 m/s 756 mmHg 8%
19:00 +36°C° 0 mm 2 m/s 757 mmHg 10%
20:00 +35°C° 0 mm 3 m/s 757 mmHg 12%
21:00 +33°C° 0 mm 3 m/s 757 mmHg 14%
22:00 +33°C° 0 mm 3 m/s 757 mmHg 15%
23:00 +32°C° 0 mm 4 m/s 757 mmHg 15%

19 Avril, Lundi

Heure Température Précipitation Vent Pression Humidité
00:00 +32°C° 0 mm 4 m/s 757 mmHg 15%
01:00 +30°C° 0 mm 4 m/s 757 mmHg 16%
02:00 +29°C° 0 mm 4 m/s 757 mmHg 17%
03:00 +29°C° 0 mm 4 m/s 757 mmHg 18%
04:00 +29°C° 0 mm 4 m/s 757 mmHg 19%
05:00 +28°C° 0 mm 5 m/s 757 mmHg 19%
06:00 +28°C° 0 mm 5 m/s 757 mmHg 20%
07:00 +32°C° 0 mm 6 m/s 757 mmHg 17%
08:00 +34°C° 0 mm 7 m/s 757 mmHg 15%
09:00 +38°C° 0 mm 9 m/s 757 mmHg 12%
10:00 +39°C° 0 mm 9 m/s 757 mmHg 11%
11:00 +42°C° 0 mm 9 m/s 757 mmHg 10%
12:00 +44°C° 0 mm 9 m/s 756 mmHg 8%
13:00 +44°C° 0 mm 9 m/s 756 mmHg 8%
14:00 +44°C° 0 mm 9 m/s 755 mmHg 8%
15:00 +45°C° 0 mm 9 m/s 755 mmHg 8%
16:00 +44°C° 0 mm 8 m/s 755 mmHg 8%
17:00 +43°C° 0 mm 7 m/s 755 mmHg 9%
18:00 +41°C° 0 mm 6 m/s 755 mmHg 9%
19:00 +40°C° 0 mm 6 m/s 755 mmHg 11%
20:00 +38°C° 0 mm 6 m/s 755 mmHg 12%
21:00 +36°C° 0 mm 6 m/s 755 mmHg 13%
22:00 +35°C° 0 mm 5 m/s 755 mmHg 14%
23:00 +35°C° 0 mm 5 m/s 755 mmHg 16%

20 Avril, Mardi

Heure Température Précipitation Vent Pression Humidité
00:00 +34°C° 0 mm 5 m/s 755 mmHg 17%
01:00 +33°C° 0 mm 5 m/s 755 mmHg 17%
02:00 +33°C° 0 mm 5 m/s 755 mmHg 18%
03:00 +32°C° 0 mm 5 m/s 754 mmHg 19%
04:00 +32°C° 0 mm 5 m/s 755 mmHg 20%
05:00 +30°C° 0 mm 5 m/s 755 mmHg 21%
06:00 +30°C° 0 mm 5 m/s 755 mmHg 21%
07:00 +33°C° 0 mm 6 m/s 755 mmHg 19%
08:00 +37°C° 0 mm 8 m/s 755 mmHg 17%
09:00 +39°C° 0 mm 10 m/s 755 mmHg 14%
10:00 +42°C° 0 mm 10 m/s 755 mmHg 13%
11:00 +43°C° 0 mm 10 m/s 754 mmHg 11%
12:00 +45°C° 0 mm 10 m/s 754 mmHg 9%
13:00 +46°C° 0 mm 11 m/s 754 mmHg 9%
14:00 +47°C° 0 mm 11 m/s 753 mmHg 9%
15:00 +47°C° 0 mm 12 m/s 753 mmHg 8%
16:00 +45°C° 0 mm 10 m/s 753 mmHg 9%
17:00 +44°C° 0 mm 9 m/s 753 mmHg 10%
18:00 +43°C° 0 mm 8 m/s 753 mmHg 10%
19:00 +41°C° 0 mm 7 m/s 753 mmHg 12%
20:00 +39°C° 0 mm 6 m/s 753 mmHg 13%
21:00 +38°C° 0 mm 6 m/s 754 mmHg 15%
22:00 +36°C° 0 mm 6 m/s 754 mmHg 15%
23:00 +35°C° 0 mm 6 m/s 754 mmHg 16%
Voir plus

Nous avons besoin de votre consentement

Meteoprog et ses fournisseurs de services peuvent stocker et accéder à des données personnelles telles que des cookies, des identifiants d'appareils ou d'autres technologies similaires sur votre appareil et traiter ces données pour personnaliser le contenu et les publicités, ainsi que pour fournir des fonctionnalités de médias sociaux et analyser le trafic.

  • Stocker et/ou accéder à des informations sur votre appareil

    Des cookies, des identifiants d'appareils ou d'autres informations peuvent être stockés ou accessibles sur votre appareil aux fins indiquées ci-dessus.

  • Annonces et contenus personnalisés, mesure des annonces et des contenus, connaissance de l'audience et développement de produits

    Les annonces et le contenu peuvent être personnalisés en fonction d'un profil. D'autres données peuvent être ajoutées pour mieux personnaliser les annonces et le contenu. Les performances des publicités et du contenu peuvent être mesurées. Il est possible d'obtenir des informations sur le public qui a vu les publicités et le contenu. Ces données peuvent être utilisées pour développer ou améliorer l'expérience de l'utilisateur, les systèmes et les logiciels.

En cliquant sur "J'accepte", vous autorisez l'utilisation de cookies, des identifiants d'appareils, des balises web ou d'autres technologies similaires. Vos paramètres peuvent être modifiés dans le navigateur de votre appareil.

Dans certains cas, des intérêts légitimes peuvent être invoqués plutôt qu'un consentement. Vous pouvez en savoir plus à ce sujet dans notre Politique de confidentialité et de cookies.